[[{"header":{"parameterUnit":"m.s-1","parameterCategory":2,"la1":30.2991,"la2":30.254,"lo1":-89.0895,"lo2":-89.0444,"dy":0.0017,"dx":0.0017,"nx":28,"ny":28,"refTime":"2023-10-09T21:00:00:Z","depth":"0","parameterNumber":2,"parameterNumberName":"U-component_of_CURRENTS"},"data":[0,0,0,0,0,0,0,0,0,0,0,0,0,0,0,0,0,0,0,0,0,0,0,0,0,0,0,0,0,0,0,0,0,0,0,0,0,0,0,0,0,0,0,0,0,0,0,0,0,0,0,0,0,0,0,0,0,0,0.2148,0.2148,0,0.2047,0.2045,0.2044,0.195,0.1949,0.1949,0.1948,0.1851,0.1849,0.1847,0,0,0,0,0,0,0,0,0,0,0,0,0,0.2233,0.2232,0.2148,0.2147,0.2147,0.2047,0.2045,0.2043,0.195,0.1949,0.1948,0.1948,0.1851,0.1849,0.1847,0,0,0,0,0,0,0,0,0,0,0,0,0,0.2166,0.2232,0.2148,0.2092,0.2086,0.2047,0.2045,0.2043,0.195,0.1949,0.1948,0.1947,0.1852,0.1849,0.1846,0.185,0,0,0.1837,0.1836,0,0,0,0,0,0,0,0,0.217,0.2163,0.2101,0.2095,0.2089,0.2014,0.204,0.198,0.1951,0.1997,0.1948,0.1947,0.1909,0.1902,0.1878,0.1846,0.1841,0.1837,0.1835,0.1834,0.1833,0,0,0,0,0,0,0,0.2175,0.2166,0.2103,0.21,0.2093,0.2062,0.2051,0.2027,0.1957,0.1993,0.1987,0.1983,0.1905,0.1881,0.1876,0.184,0.1837,0.1835,0.1833,0.1832,0.1877,0.188,0,0,0,0,0,0,0.2199,0.2171,0.2107,0.2101,0.2133,0.2062,0.2049,0.2035,0.1957,0.1945,0.1984,0.1979,0.1887,0.1879,0.1872,0.1943,0.1834,0.1832,0.183,0.1874,0.1877,0.1881,0,0,0,0,0,0,0.2201,0.2194,0.2111,0.2138,0.2126,0.2062,0.2047,0.2034,0.2021,0.1951,0.1938,0.1987,0.1886,0.1876,0.1875,0.1935,0.183,0.1828,0.187,0.1875,0.1879,0.2039,0,0,0,0,0,0,0.2204,0.2195,0.2196,0.2139,0.2125,0.2104,0.2048,0.2033,0.2022,0.2015,0.195,0.1938,0.1884,0.188,0.1873,0.193,0.1825,0.1867,0.1872,0.1878,0.203,0.2049,0.2064,0,0,0,0,0,0.2207,0.2206,0.2197,0.2189,0.2127,0.2105,0.2095,0.2043,0.2024,0.2026,0.1992,0.1941,0.191,0.188,0.187,0.1928,0.1864,0.1871,0.1877,0.2023,0.2045,0.2064,0,0,0,0,0,0,0.2225,0.2195,0.2183,0.2168,0.2152,0.2092,0.2084,0.2063,0.2036,0.2029,0.1967,0.1955,0.1981,0.1935,0.1904,0.196,0.1884,0.1889,0.1998,0.2018,0.2035,0.1992,0.1823,0,0,0,0,0,0.2239,0.2236,0.2206,0.2195,0.2192,0.2149,0.2136,0.2108,0.2076,0.2061,0.2025,0.1998,0.2,0.1993,0.1972,0.1996,0.1982,0.2032,0.2049,0.2063,0.2024,0.2102,0.2123,0.1902,0.1902,0.1902,0,0,0.2238,0.2226,0.2219,0.2202,0.2178,0.2175,0.2136,0.2125,0.2126,0.2059,0.2055,0.2053,0.202,0.205,0.2059,0.2019,0.2129,0.2072,0.2085,0.2036,0.2111,0.2132,0.2151,0.1907,0.1906,0.1905,0,0,0.2236,0.2233,0.223,0.223,0.2219,0.2202,0.2213,0.218,0.217,0.2172,0.215,0.2181,0.2149,0.2158,0.2154,0.2253,0.2219,0.2265,0.2311,0.2391,0.2409,0.2425,0.2475,0.2493,0.2272,0.2273,0.2273,0,0.2234,0.2226,0.2227,0.2231,0.2229,0.2225,0.2223,0.2224,0.2198,0.2211,0.2184,0.2213,0.2195,0.226,0.229,0.2291,0.2316,0.224,0.2414,0.2428,0.2442,0.2488,0.2507,0.2281,0.228,0.228,0.2279,0,0.2229,0.223,0.2232,0.2239,0.2248,0.2248,0.2259,0.228,0.2279,0.228,0.2339,0.2336,0.2348,0.2384,0.2351,0.2461,0.2445,0.2434,0.2362,0.2474,0.2516,0.2533,0.2294,0.229,0.2288,0.2286,0,0,0.2183,0.2219,0.2216,0.2226,0.2252,0.2252,0.2295,0.2323,0.2351,0.2375,0.2414,0.2461,0.2477,0.2473,0.2493,0.2552,0.2692,0.2529,0.2529,0.2575,0.286,0.2908,0.2929,0.2728,0.2731,0.2733,0.2866,0,0.2168,0.218,0.2206,0.2221,0.2226,0.2264,0.23,0.2341,0.2373,0.2419,0.2477,0.2511,0.2513,0.2535,0.2612,0.2653,0.2735,0.2654,0.2741,0.2742,0.2771,0.295,0.2966,0.3091,0.2882,0.2884,0.2886,0,0.214,0.2157,0.2167,0.2213,0.222,0.2237,0.2301,0.2333,0.2423,0.2451,0.253,0.256,0.2659,0.2637,0.2794,0.2748,0.2807,0.2844,0.2851,0.2831,0.2821,0.2937,0.3128,0.298,0.291,0.2908,0.2907,0,0.2093,0.2124,0.2133,0.2146,0.2203,0.2223,0.2257,0.2339,0.2376,0.2472,0.2509,0.2633,0.268,0.2789,0.2874,0.2844,0.3034,0.301,0.3116,0.3119,0.3108,0.3106,0.3153,0.3133,0.3133,0.3132,0.3132,0,0.206,0.2062,0.211,0.2114,0.2136,0.2187,0.2228,0.2283,0.2369,0.2439,0.2521,0.2601,0.2719,0.2839,0.2915,0.3082,0.3089,0.3145,0.3176,0.317,0.3171,0.3016,0.2911,0.3137,0.3136,0.3135,0.3134,0,0.2,0.2031,0.2043,0.2096,0.2111,0.2125,0.2195,0.2232,0.2317,0.2412,0.2442,0.2589,0.2766,0.2896,0.3068,0.3136,0.3195,0.3328,0.3299,0.3325,0.3278,0.3182,0.3097,0.3006,0.3474,0.3477,0.3478,0,0.1968,0.1968,0.2015,0.2022,0.2041,0.2074,0.2101,0.2191,0.2242,0.2421,0.2466,0.2651,0.2801,0.3076,0.3252,0.3444,0.3279,0.3534,0.3484,0.3303,0.3219,0.301,0.2922,0.3544,0.3546,0.3548,0.355,0,0.1905,0.1922,0.1936,0.1958,0.1977,0.201,0.2062,0.21,0.2234,0.233,0.249,0.2619,0.2935,0.3147,0.3401,0.3533,0.3357,0.3579,0.3417,0.3304,0.3054,0.2972,0.3389,0.3567,0.3565,0.3564,0.3563,0.3562,0.1848,0.1846,0.1868,0.1888,0.1908,0.1939,0.1962,0.2051,0.2142,0.2308,0.2465,0.2671,0.2999,0.3381,0.3475,0.3623,0.3476,0.3569,0.3479,0.329,0.3163,0.3605,0.3799,0.3799,0.3799,0.3799,0.3798,0,0.1771,0.1785,0.1798,0.1823,0.1825,0.1862,0.193,0.1968,0.2073,0.227,0.243,0.2794,0.3054,0.3315,0.3595,0.3515,0.3364,0.3404,0.3099,0.3027,0.3482,0.3446,0.3543,0.3543,0.3543,0.3544,0.3544,0.3544,0.1728,0.1715,0.1737,0.173,0.1748,0.1746,0.1776,0.1862,0.1993,0.2214,0.2422,0.2628,0.2932,0.3203,0.327,0.3275,0.2961,0.2891,0.2729,0.3037,0.3042,0.3047,0.2989,0.2989,0.2988,0.2228,0.2222,0.2218]},{"header":{"parameterUnit":"m.s-1","parameterCategory":2,"la1":30.2991,"la2":30.254,"lo1":-89.0895,"lo2":-89.0444,"dy":0.0017,"dx":0.0017,"nx":28,"ny":28,"refTime":"2023-10-09T21:00:00:Z","depth":"0","parameterNumber":3,"parameterNumberName":"V-component_of_CURRENTS"},"data":[0,0,0,0,0,0,0,0,0,0,0,0,0,0,0,0,0,0,0,0,0,0,0,0,0,0,0,0,0,0,0,0,0,0,0,0,0,0,0,0,0,0,0,0,0,0,0,0,0,0,0,0,0,0,0,0,0,0,0.0134,0.0132,0,-0.0046,-0.0048,-0.005,-0.0187,-0.0188,-0.0189,-0.019,-0.0304,-0.0306,-0.0308,0,0,0,0,0,0,0,0,0,0,0,0,0,0.0235,0.0235,0.0134,0.0132,0.0129,-0.0045,-0.0048,-0.0051,-0.0187,-0.0188,-0.019,-0.0191,-0.0303,-0.0306,-0.0308,0,0,0,0,0,0,0,0,0,0,0,0,0,0.0137,0.0235,0.0134,0.0041,0.0031,-0.0045,-0.0048,-0.0051,-0.0186,-0.0188,-0.019,-0.0192,-0.0303,-0.0305,-0.0308,-0.0289,0,0,-0.0317,-0.0318,0,0,0,0,0,0,0,0,0.0143,0.0133,0.0057,0.0047,0.0036,-0.0095,-0.0054,-0.0127,-0.0186,-0.0104,-0.019,-0.0193,-0.0226,-0.0236,-0.0267,-0.0294,-0.0299,-0.0317,-0.0319,-0.032,-0.0321,0,0,0,0,0,0,0,0.015,0.014,0.0062,0.0055,0.0042,-0.0035,-0.0049,-0.007,-0.0152,-0.0112,-0.0122,-0.014,-0.0232,-0.0264,-0.027,-0.0301,-0.0317,-0.0319,-0.0321,-0.0322,-0.0331,-0.033,0,0,0,0,0,0,0.0182,0.0147,0.0068,0.0057,0.0086,-0.0034,-0.0051,-0.0052,-0.0154,-0.0171,-0.0139,-0.0146,-0.0258,-0.0267,-0.0275,-0.0235,-0.032,-0.0323,-0.0324,-0.0333,-0.0331,-0.033,0,0,0,0,0,0,0.0185,0.0177,0.0075,0.0097,0.0078,-0.0033,-0.0034,-0.0054,-0.0085,-0.0175,-0.0192,-0.0148,-0.026,-0.0271,-0.0294,-0.0241,-0.0324,-0.0326,-0.0335,-0.0332,-0.033,-0.017,0,0,0,0,0,0,0.0189,0.018,0.0194,0.01,0.0078,0.0058,-0.0033,-0.0057,-0.0094,-0.0105,-0.0188,-0.0201,-0.0262,-0.0289,-0.0296,-0.0247,-0.0329,-0.0336,-0.0334,-0.0331,-0.0177,-0.0163,-0.015,0,0,0,0,0,0.0194,0.0219,0.0196,0.0186,0.0101,0.006,0.0044,-0.0045,-0.0092,-0.0083,-0.0157,-0.0199,-0.0277,-0.029,-0.0299,-0.0249,-0.0338,-0.0334,-0.0331,-0.0183,-0.0165,-0.015,0,0,0,0,0,0,0.0258,0.0205,0.0178,0.0183,0.0141,0.0038,0.0031,-0.0026,-0.0079,-0.0092,-0.0183,-0.0199,-0.0203,-0.0247,-0.0259,-0.0246,-0.0312,-0.031,-0.0196,-0.018,-0.0167,-0.0142,-0.0331,0,0,0,0,0,0.0286,0.0298,0.0232,0.0238,0.0226,0.0136,0.0107,0.0054,-0.001,-0.0038,-0.0098,-0.0157,-0.0195,-0.0205,-0.0249,-0.023,-0.028,-0.0205,-0.0192,-0.018,-0.0166,-0.0199,-0.0186,-0.0319,-0.0319,-0.0319,0,0,0.0305,0.0283,0.0284,0.0254,0.021,0.0206,0.0115,0.0091,0.0084,-0.0035,-0.0051,-0.0112,-0.0184,-0.0181,-0.0183,-0.0208,-0.0168,-0.0175,-0.0164,-0.0158,-0.0194,-0.0181,-0.0169,-0.0317,-0.0317,-0.0317,0,0,0.035,0.0344,0.0364,0.0349,0.0308,0.0266,0.0272,0.0195,0.0164,0.0145,0.0052,0.0028,-0.003,-0.0068,-0.0096,-0.0027,-0.0104,-0.0041,0.0062,0.0032,0.0043,0.0052,0.001,0.0014,-0.0023,-0.0022,-0.0022,0,0.0368,0.0389,0.0363,0.0379,0.0368,0.0306,0.0318,0.0294,0.0217,0.0202,0.0166,0.0075,0.0029,0.0021,0.0042,0.001,-0.0037,0.001,0.0052,0.0059,0.0066,0.0021,0.0023,-0.0014,-0.0015,-0.0016,-0.0017,0,0.0419,0.0439,0.0456,0.0463,0.0461,0.0466,0.0435,0.0434,0.0394,0.035,0.0333,0.0262,0.0202,0.02,0.0144,0.0171,0.0113,0.0066,0.0017,0.0089,0.0036,0.0036,-0.0003,-0.0006,-0.0008,-0.001,0,0,0.0435,0.0478,0.0482,0.0499,0.0504,0.05,0.0533,0.0524,0.0526,0.0492,0.0482,0.045,0.0397,0.0362,0.0297,0.0292,0.031,0.0214,0.0208,0.0184,0.0228,0.0188,0.0182,0.0262,0.0263,0.0264,0.0175,0,0.0469,0.0521,0.0535,0.0584,0.0605,0.0593,0.0621,0.0616,0.0597,0.0585,0.0544,0.0507,0.0463,0.043,0.0427,0.0315,0.0314,0.0337,0.0151,0.0146,0.011,0.0183,0.0259,0.0186,0.0174,0.0174,0.0173,0,0.0504,0.0535,0.0588,0.0636,0.0644,0.0669,0.0694,0.071,0.0704,0.0685,0.0667,0.0605,0.0587,0.0535,0.0441,0.0448,0.0366,0.0297,0.0291,0.0198,0.0105,0.0108,0.0185,0.0051,0.0172,0.0172,0.0172,0,0.0512,0.0571,0.0615,0.063,0.0677,0.0699,0.0721,0.0733,0.0744,0.0739,0.0729,0.069,0.0644,0.0566,0.0437,0.0428,0.032,0.0277,0.0171,0.0165,0.0167,0.0161,0.0104,0.0233,0.0233,0.0234,0.0234,0,0.054,0.0574,0.0622,0.0644,0.0693,0.0719,0.0761,0.0776,0.0789,0.0809,0.0772,0.0763,0.0648,0.0566,0.0461,0.0317,0.0334,0.0206,0.0152,0.0224,0.0224,0.0052,-0.0053,0.023,0.0231,0.0232,0.0232,0,0.0546,0.0577,0.0627,0.0681,0.0698,0.0731,0.0783,0.0812,0.0823,0.0844,0.0841,0.0798,0.0707,0.0585,0.0435,0.0329,0.0129,0.0145,0.0234,0.0193,-0.0029,-0.0128,-0.0249,-0.0326,0.0021,0.002,0.0019,0,0.0557,0.0582,0.0643,0.0671,0.0698,0.0747,0.0784,0.0819,0.0851,0.0868,0.0878,0.0806,0.0782,0.0555,0.0383,0.0205,0.0078,0.011,0.0123,-0.0011,-0.0163,-0.0199,-0.0256,0.0185,0.0186,0.0186,0.0186,0,0.0573,0.0591,0.0631,0.0683,0.0727,0.0783,0.0837,0.0866,0.0912,0.0937,0.096,0.0948,0.0772,0.065,0.0398,0.0262,0.0031,0.0106,-0.0041,-0.0036,-0.0069,-0.0178,0.0191,0.0188,0.0188,0.0188,0.0188,0.0188,0.058,0.0605,0.0652,0.0702,0.0755,0.0821,0.087,0.0935,0.0997,0.1074,0.1052,0.1104,0.0933,0.0627,0.0373,0.0035,0.0007,-0.0044,-0.0154,-0.0178,-0.0238,0.0127,0.0061,0.006,0.0059,0.0059,0.0058,0,0.0585,0.0617,0.0668,0.0735,0.0795,0.0823,0.0909,0.0971,0.1061,0.1173,0.1229,0.1286,0.0983,0.0668,0.0224,-0.0116,-0.0222,-0.031,-0.032,-0.0372,-0.0038,-0.0015,-0.0089,-0.0089,-0.0089,-0.0088,-0.0088,-0.0088,0.0591,0.0631,0.0659,0.0754,0.0807,0.0894,0.0949,0.1053,0.1158,0.1362,0.151,0.1608,0.1509,0.055,-0.0151,-0.0366,-0.0601,-0.0635,-0.0822,-0.0571,-0.0553,-0.0536,-0.0536,-0.0717,-0.0718,-0.1033,-0.1037,-0.104]}],[{"header":{"parameterUnit":"m.s-1","parameterCategory":2,"la1":30.2991,"la2":30.254,"lo1":-89.0895,"lo2":-89.0444,"dy":0.0017,"dx":0.0017,"nx":28,"ny":28,"refTime":"2023-10-09T21:00:00:Z","depth":"2","parameterNumber":2,"parameterNumberName":"U-component_of_CURRENTS"},"data":[0,0,0,0,0,0,0,0,0,0,0,0,0,0,0,0,0,0,0,0,0,0,0,0,0,0,0,0,0,0,0,0,0,0,0,0,0,0,0,0,0,0,0,0,0,0,0,0,0,0,0,0,0,0,0,0,0,0,0.1806,0.1807,0,0.183,0.183,0.183,0.1825,0.1824,0.1824,0.1824,0.1771,0.177,0.1768,0,0,0,0,0,0,0,0,0,0,0,0,0,0.177,0.177,0.1806,0.1807,0.1807,0.183,0.183,0.183,0.1825,0.1824,0.1824,0.1824,0.1771,0.177,0.1768,0,0,0,0,0,0,0,0,0,0,0,0,0,0.1786,0.1771,0.1806,0.1809,0.181,0.183,0.183,0.183,0.1825,0.1824,0.1824,0.1824,0.1772,0.177,0.1768,0.1763,0,0,0.1763,0.1762,0,0,0,0,0,0,0,0,0.1786,0.1787,0.1808,0.1809,0.181,0.1826,0.1798,0.1805,0.1825,0.1816,0.1824,0.1824,0.1784,0.1781,0.1784,0.1761,0.1758,0.1762,0.1761,0.176,0.176,0,0,0,0,0,0,0,0.1784,0.1787,0.1813,0.1809,0.181,0.1814,0.1816,0.1799,0.1798,0.1817,0.1817,0.1824,0.1784,0.1786,0.1782,0.1758,0.1762,0.1761,0.176,0.1759,0.1719,0.172,0,0,0,0,0,0,0.1786,0.1785,0.1812,0.1814,0.18,0.1815,0.1817,0.1819,0.18,0.1798,0.1824,0.1824,0.1789,0.1785,0.178,0.1796,0.176,0.1759,0.1758,0.1719,0.1719,0.172,0,0,0,0,0,0,0.1785,0.1788,0.1811,0.1803,0.1806,0.1817,0.1819,0.182,0.1819,0.1807,0.1803,0.1822,0.1789,0.1783,0.1763,0.1793,0.1758,0.1756,0.1719,0.1719,0.172,0.1812,0,0,0,0,0,0,0.1784,0.1788,0.1789,0.1803,0.1807,0.1823,0.182,0.1821,0.1825,0.1824,0.1804,0.1799,0.1788,0.1766,0.1761,0.179,0.1755,0.1719,0.1719,0.1719,0.1809,0.1815,0.1821,0,0,0,0,0,0.1783,0.1789,0.1789,0.1793,0.1809,0.1824,0.1826,0.1831,0.1825,0.1827,0.1811,0.18,0.1763,0.1764,0.1759,0.1788,0.1719,0.1719,0.1719,0.1806,0.1814,0.1821,0,0,0,0,0,0,0.1789,0.179,0.179,0.18,0.1811,0.1824,0.1831,0.183,0.182,0.1816,0.1797,0.1792,0.1792,0.1763,0.1765,0.1772,0.174,0.1739,0.1808,0.1815,0.1821,0.1845,0.1753,0,0,0,0,0,0.1788,0.1786,0.1796,0.1807,0.1811,0.1818,0.1824,0.1827,0.1824,0.182,0.1806,0.1789,0.1789,0.1779,0.1769,0.1765,0.1789,0.1777,0.1783,0.1788,0.1802,0.1864,0.1878,0.172,0.172,0.172,0,0,0.1798,0.1798,0.1799,0.1807,0.1815,0.1826,0.182,0.1832,0.1844,0.1814,0.1816,0.181,0.1792,0.1801,0.1797,0.1779,0.1849,0.1788,0.1794,0.1804,0.1866,0.1882,0.1896,0.172,0.172,0.172,0,0,0.1815,0.1812,0.1814,0.1819,0.1829,0.1833,0.1835,0.1842,0.1847,0.1848,0.1842,0.1852,0.1826,0.1841,0.184,0.1865,0.1882,0.1852,0.1901,0.1962,0.1977,0.199,0.2065,0.2084,0.1851,0.1851,0.1851,0,0.1831,0.183,0.1821,0.1827,0.1839,0.1836,0.185,0.1856,0.1857,0.1872,0.1853,0.1868,0.1855,0.1894,0.1909,0.1885,0.1923,0.1884,0.1976,0.1989,0.2001,0.2074,0.2094,0.1855,0.1855,0.1854,0.1854,0,0.1843,0.1848,0.1853,0.1854,0.1864,0.1877,0.1886,0.1892,0.1894,0.1909,0.1942,0.1936,0.195,0.1952,0.1941,0.2018,0.2021,0.1987,0.1971,0.2024,0.2096,0.2116,0.1862,0.186,0.1859,0.1858,0,0,0.1877,0.1863,0.1869,0.187,0.1879,0.189,0.1912,0.194,0.1972,0.1974,0.2027,0.2038,0.2048,0.2048,0.2044,0.2096,0.2226,0.2083,0.2084,0.2181,0.2386,0.2277,0.2288,0.2216,0.2219,0.2221,0.2412,0,0.1896,0.1901,0.1897,0.1918,0.1922,0.1929,0.1959,0.1985,0.2008,0.2055,0.2074,0.2121,0.208,0.211,0.2153,0.2212,0.2277,0.2179,0.2298,0.2302,0.2219,0.2306,0.2017,0.2151,0.2431,0.2434,0.2436,0,0.1915,0.1912,0.1928,0.1945,0.1953,0.1974,0.2025,0.205,0.2113,0.214,0.2183,0.2203,0.2284,0.2239,0.2371,0.2313,0.2361,0.2399,0.2406,0.2285,0.2228,0.2135,0.2176,0.2468,0.2466,0.2463,0.2461,0,0.1931,0.1942,0.1953,0.1956,0.1975,0.2002,0.2027,0.2084,0.2117,0.2212,0.2256,0.2332,0.2389,0.2455,0.2514,0.2465,0.2667,0.2603,0.2554,0.2548,0.2313,0.2279,0.2711,0.271,0.271,0.2709,0.2709,0,0.1945,0.1959,0.1962,0.1966,0.2,0.2022,0.2077,0.2119,0.2193,0.2244,0.2304,0.2361,0.2448,0.2546,0.2584,0.2638,0.2724,0.2595,0.2595,0.2335,0.2302,0.2566,0.2546,0.2717,0.2715,0.2714,0.2712,0,0.1957,0.1957,0.1967,0.1989,0.2002,0.203,0.2082,0.2118,0.2205,0.2279,0.2318,0.243,0.2554,0.2637,0.2779,0.2722,0.2795,0.2792,0.2489,0.2447,0.2623,0.2606,0.276,0.2758,0.2756,0.2754,0.2753,0,0.1958,0.1961,0.1974,0.1973,0.1984,0.202,0.2042,0.2118,0.2152,0.2299,0.2333,0.2491,0.2524,0.269,0.2649,0.2705,0.2822,0.2501,0.2328,0.2646,0.2631,0.2617,0.2602,0.2077,0.2071,0.2065,0.2061,0,0.1951,0.1958,0.1951,0.1951,0.1966,0.1977,0.2019,0.2042,0.2135,0.2192,0.2279,0.2327,0.2427,0.2327,0.24,0.2387,0.2456,0.2387,0.2835,0.2085,0.201,0.1993,0.2,0.2012,0.2017,0.202,0.2023,0.2025,0.1937,0.1926,0.1909,0.1906,0.1919,0.1916,0.1903,0.1935,0.1961,0.197,0.2091,0.2052,0.2055,0.196,0.1977,0.201,0.2141,0.2058,0.2072,0.2092,0.1955,0.1878,0.1832,0.1835,0.1839,0.1841,0.1844,0,0.1883,0.1871,0.1861,0.1829,0.1801,0.1855,0.1862,0.1808,0.1782,0.1763,0.1745,0.1511,0.1446,0.1568,0.1478,0.1485,0.1446,0.1503,0.1422,0.1468,0.1509,0.1341,0.1057,0.1056,0.1054,0.1053,0,0,0.1847,0.1796,0.1779,0.1704,0.1704,0.1663,0.1655,0.1583,0.1538,0.1341,0.1249,0.1222,0.1367,0.112,0.1123,0.1104,0.1282,0.1063,0.1669,0.1609,0.1649,0.1782,0.1567,0,0,0,0,0]},{"header":{"parameterUnit":"m.s-1","parameterCategory":2,"la1":30.2991,"la2":30.254,"lo1":-89.0895,"lo2":-89.0444,"dy":0.0017,"dx":0.0017,"nx":28,"ny":28,"refTime":"2023-10-09T21:00:00:Z","depth":"2","parameterNumber":3,"parameterNumberName":"V-component_of_CURRENTS"},"data":[0,0,0,0,0,0,0,0,0,0,0,0,0,0,0,0,0,0,0,0,0,0,0,0,0,0,0,0,0,0,0,0,0,0,0,0,0,0,0,0,0,0,0,0,0,0,0,0,0,0,0,0,0,0,0,0,0,0,-0.0027,-0.0028,0,-0.0109,-0.011,-0.0111,-0.0169,-0.017,-0.0171,-0.0171,-0.0246,-0.0248,-0.0249,0,0,0,0,0,0,0,0,0,0,0,0,0,0.0091,0.009,-0.0027,-0.0028,-0.003,-0.0109,-0.011,-0.0111,-0.0169,-0.017,-0.0171,-0.0172,-0.0246,-0.0248,-0.0249,0,0,0,0,0,0,0,0,0,0,0,0,0,0.0031,0.0089,-0.0027,-0.0071,-0.0076,-0.0109,-0.011,-0.0111,-0.0169,-0.017,-0.0171,-0.0172,-0.0246,-0.0247,-0.0249,-0.0236,0,0,-0.0255,-0.0256,0,0,0,0,0,0,0,0,0.0035,0.0027,-0.0063,-0.0068,-0.0074,-0.0133,-0.0096,-0.0154,-0.0168,-0.013,-0.0171,-0.0173,-0.0209,-0.0214,-0.0222,-0.024,-0.0243,-0.0255,-0.0256,-0.0257,-0.0258,0,0,0,0,0,0,0,0.0039,0.003,-0.0056,-0.0065,-0.0071,-0.0083,-0.0093,-0.0107,-0.0159,-0.0133,-0.0138,-0.0153,-0.0212,-0.022,-0.0224,-0.0244,-0.0255,-0.0257,-0.0258,-0.0259,-0.0324,-0.0324,0,0,0,0,0,0,0.0042,0.0034,-0.0053,-0.0059,-0.0026,-0.0085,-0.0095,-0.011,-0.0159,-0.0169,-0.0152,-0.0156,-0.0216,-0.0222,-0.0227,-0.0249,-0.0257,-0.0259,-0.026,-0.0323,-0.0324,-0.0325,0,0,0,0,0,0,0.0045,0.0035,-0.005,-0.0017,-0.0029,-0.0086,-0.0102,-0.0111,-0.0133,-0.0174,-0.0183,-0.0167,-0.0217,-0.0225,-0.0254,-0.0252,-0.026,-0.0261,-0.0322,-0.0323,-0.0324,-0.0272,0,0,0,0,0,0,0.0049,0.0037,0.0034,-0.0017,-0.0031,-0.0069,-0.0101,-0.0112,-0.0142,-0.0147,-0.0189,-0.0197,-0.0219,-0.0251,-0.0256,-0.0254,-0.0263,-0.0322,-0.0323,-0.0324,-0.0273,-0.0271,-0.0269,0,0,0,0,0,0.0053,0.0051,0.0034,0.0023,-0.0036,-0.0069,-0.0076,-0.0118,-0.0141,-0.0143,-0.0182,-0.0196,-0.0262,-0.0253,-0.0258,-0.0257,-0.0321,-0.0323,-0.0324,-0.0273,-0.0271,-0.0269,0,0,0,0,0,0,0.0093,0.0043,0.0024,0.0004,-0.0029,-0.008,-0.0087,-0.0119,-0.015,-0.0156,-0.0198,-0.0207,-0.0233,-0.0256,-0.0245,-0.0283,-0.0296,-0.0299,-0.0256,-0.0254,-0.0252,-0.022,-0.0264,0,0,0,0,0,0.0103,0.0092,0.004,0.0026,0.0012,-0.0037,-0.0055,-0.0084,-0.0123,-0.0139,-0.0175,-0.0213,-0.024,-0.0256,-0.0282,-0.0296,-0.0307,-0.0304,-0.0302,-0.03,-0.028,-0.031,-0.0308,-0.0329,-0.0329,-0.0329,0,0,0.0112,0.0085,0.0076,0.0035,0.0008,-0.0004,-0.005,-0.0075,-0.0087,-0.014,-0.0165,-0.0204,-0.0243,-0.0264,-0.0278,-0.0284,-0.03,-0.0302,-0.0299,-0.028,-0.0311,-0.0309,-0.0307,-0.033,-0.033,-0.033,0,0,0.013,0.0104,0.0103,0.0084,0.0045,0.0019,0.0011,-0.0043,-0.0066,-0.0094,-0.0139,-0.0176,-0.022,-0.0247,-0.0266,-0.0269,-0.0288,-0.0288,-0.0249,-0.0279,-0.0276,-0.0275,-0.0276,-0.0274,-0.0287,-0.0287,-0.0287,0,0.0141,0.0132,0.0098,0.0096,0.0085,0.0032,0.0031,0.0005,-0.0054,-0.0064,-0.0096,-0.0165,-0.0206,-0.0225,-0.0235,-0.0261,-0.0274,-0.025,-0.0273,-0.0272,-0.0271,-0.0273,-0.0272,-0.0285,-0.0285,-0.0285,-0.0285,0,0.0158,0.0154,0.0154,0.0137,0.0126,0.0117,0.0078,0.006,0.0022,-0.0008,-0.0043,-0.0104,-0.0143,-0.0172,-0.0204,-0.0221,-0.023,-0.0265,-0.027,-0.0265,-0.0268,-0.0268,-0.0281,-0.0282,-0.0283,-0.0283,0,0,0.0164,0.0166,0.0165,0.0175,0.0148,0.0141,0.0134,0.0114,0.012,0.0055,0.0056,-0.0018,-0.0056,-0.008,-0.0135,-0.0167,-0.018,-0.021,-0.0213,-0.0194,-0.0225,-0.0212,-0.0211,-0.0223,-0.0223,-0.0223,-0.0225,0,0.0183,0.0202,0.0195,0.0215,0.0222,0.0197,0.0201,0.0181,0.0157,0.0147,0.008,0.0057,-0.002,-0.0039,-0.0084,-0.0147,-0.018,-0.0175,-0.0247,-0.0248,-0.0224,-0.0211,-0.0244,-0.0247,-0.0226,-0.0226,-0.0226,0,0.0196,0.0211,0.0238,0.0267,0.0268,0.0277,0.0291,0.0289,0.027,0.0251,0.0215,0.0164,0.0116,0.0041,-0.0053,-0.0047,-0.013,-0.0187,-0.019,-0.0191,-0.0236,-0.0254,-0.0249,-0.0226,-0.0226,-0.0226,-0.0226,0,0.0218,0.0242,0.0272,0.0277,0.0296,0.0313,0.0323,0.032,0.0338,0.0321,0.0337,0.0262,0.024,0.0127,0.0011,-0.0027,-0.0081,-0.0152,-0.0216,-0.0216,-0.0262,-0.0265,-0.0228,-0.0228,-0.0228,-0.0228,-0.0228,0,0.0239,0.0262,0.0289,0.0305,0.0353,0.0353,0.0403,0.0403,0.0423,0.0471,0.0394,0.0427,0.0257,0.0204,0.0067,-0.0043,-0.0039,-0.0189,-0.0214,-0.0244,-0.0245,-0.0248,-0.025,-0.0228,-0.0228,-0.0228,-0.0228,0,0.0254,0.0268,0.031,0.0347,0.0364,0.0399,0.0459,0.0502,0.0514,0.0578,0.0579,0.0554,0.0498,0.0344,0.0191,0.0051,-0.0072,-0.0123,-0.0125,-0.015,-0.0206,-0.0206,-0.0201,-0.0201,-0.02,-0.02,-0.02,0,0.0263,0.0284,0.0343,0.0377,0.0398,0.0453,0.05,0.0535,0.0596,0.0675,0.0724,0.0697,0.0715,0.0524,0.0249,0.0032,-0.0007,-0.0139,-0.0234,-0.0177,-0.0203,-0.0203,-0.0203,-0.0275,-0.0276,-0.0276,-0.0276,0,0.0282,0.0302,0.0341,0.0415,0.0473,0.0549,0.0627,0.0699,0.0765,0.0855,0.0982,0.1013,0.0809,0.0581,0.0269,0.011,-0.0109,-0.0151,-0.0092,-0.0269,-0.0246,-0.0271,-0.0269,-0.0279,-0.0279,-0.0278,-0.0278,-0.0278,0.0295,0.0331,0.0386,0.0461,0.0532,0.0649,0.0736,0.0855,0.1002,0.1118,0.1128,0.1121,0.0818,0.0389,0.0169,-0.0096,-0.0106,-0.0246,-0.0246,-0.0246,-0.0246,-0.0223,-0.025,-0.025,-0.0249,-0.0249,-0.0249,0,0.0309,0.0358,0.043,0.0533,0.0628,0.0654,0.0822,0.0949,0.116,0.1185,0.1255,0.0936,0.0675,0.0386,-0.0029,-0.0252,-0.0288,-0.03,-0.033,-0.0326,-0.0324,-0.0329,-0.0355,-0.0355,-0.0355,-0.0356,0,0,0.0321,0.0391,0.0441,0.0599,0.067,0.0816,0.0921,0.1135,0.1215,0.129,0.1193,0.0988,0.0666,0.0314,0.0026,-0.0149,-0.0173,-0.0177,-0.0079,-0.0078,-0.0071,-0.0292,-0.0296,0,0,0,0,0]}],[{"header":{"parameterUnit":"m.s-1","parameterCategory":2,"la1":30.2991,"la2":30.254,"lo1":-89.0895,"lo2":-89.0444,"dy":0.0017,"dx":0.0017,"nx":28,"ny":28,"refTime":"2023-10-09T21:00:00:Z","depth":"4","parameterNumber":2,"parameterNumberName":"U-component_of_CURRENTS"},"data":[0,0,0,0,0,0,0,0,0,0,0,0,0,0,0,0,0,0,0,0,0,0,0,0,0,0,0,0,0,0,0,0,0,0,0,0,0,0,0,0,0,0,0,0,0,0,0,0,0,0,0,0,0,0,0,0,0,0,0.0467,0.0467,0,0.0483,0.0483,0.0484,0.0569,0.0571,0.0573,0.0574,0.0761,0.0764,0.0767,0,0,0,0,0,0,0,0,0,0,0,0,0,0.0438,0.0439,0.0467,0.0467,0.0467,0.0483,0.0483,0.0484,0.0569,0.0571,0.0573,0.0575,0.076,0.0764,0.0768,0,0,0,0,0,0,0,0,0,0,0,0,0,0.0455,0.0439,0.0467,0.051,0.0513,0.0483,0.0483,0.0484,0.0568,0.0571,0.0574,0.0576,0.0759,0.0763,0.0768,0.0745,0,0,0.0783,0.0785,0,0,0,0,0,0,0,0,0.0454,0.0456,0.0503,0.0507,0.0511,0.0524,0.0541,0.0579,0.0568,0.055,0.0574,0.0577,0.0694,0.0704,0.0703,0.0754,0.0762,0.0784,0.0787,0.0789,0.079,0,0,0,0,0,0,0,0.0452,0.0455,0.0476,0.0503,0.0507,0.0502,0.0509,0.0548,0.0612,0.0552,0.0557,0.0554,0.0698,0.0697,0.0708,0.0765,0.0784,0.0788,0.0791,0.0793,0.0901,0.0901,0,0,0,0,0,0,0.0446,0.0454,0.0476,0.0477,0.0485,0.0501,0.0508,0.052,0.0608,0.0622,0.0552,0.0558,0.0688,0.0702,0.0715,0.0847,0.0789,0.0794,0.0796,0.0901,0.0901,0.0901,0,0,0,0,0,0,0.0445,0.0448,0.0475,0.0463,0.0466,0.0499,0.0511,0.0518,0.0553,0.0605,0.0624,0.0583,0.069,0.0708,0.0776,0.0849,0.0796,0.08,0.0901,0.0901,0.0901,0.1012,0,0,0,0,0,0,0.0445,0.0448,0.046,0.0463,0.0466,0.0481,0.0508,0.0517,0.0543,0.0553,0.0637,0.0655,0.0694,0.0768,0.0781,0.0855,0.0804,0.0901,0.0901,0.0901,0.1008,0.1015,0.1021,0,0,0,0,0,0.0444,0.0444,0.0461,0.0464,0.0481,0.0481,0.0483,0.0516,0.0542,0.0558,0.0614,0.0654,0.0776,0.0772,0.0787,0.0865,0.0901,0.0901,0.0901,0.1005,0.1014,0.1021,0,0,0,0,0,0,0.0427,0.0452,0.0472,0.0479,0.0491,0.0495,0.0508,0.0525,0.0575,0.0606,0.0655,0.0676,0.0775,0.0771,0.0765,0.0883,0.0844,0.0846,0.0918,0.0927,0.0933,0.0913,0.0808,0,0,0,0,0,0.0428,0.0447,0.0461,0.0467,0.048,0.0499,0.0505,0.0534,0.0568,0.0594,0.0665,0.0721,0.0773,0.0811,0.0863,0.0916,0.0882,0.0966,0.0973,0.0979,0.0965,0.0951,0.0957,0.09,0.09,0.09,0,0,0.0421,0.0435,0.0447,0.0466,0.0484,0.0503,0.0513,0.054,0.0579,0.0607,0.0712,0.0765,0.0791,0.0875,0.0915,0.089,0.0979,0.0979,0.0985,0.0967,0.0952,0.0958,0.0963,0.09,0.09,0.09,0,0,0.041,0.0438,0.0455,0.0471,0.0503,0.0518,0.0532,0.058,0.0633,0.0712,0.0751,0.0818,0.0918,0.0943,0.0962,0.1014,0.1024,0.1054,0.1077,0.1066,0.1071,0.1075,0.1055,0.1056,0.1048,0.1048,0.1049,0,0.0408,0.043,0.0455,0.0474,0.0495,0.053,0.0556,0.0597,0.0672,0.0726,0.0769,0.09,0.094,0.0994,0.1029,0.1037,0.1029,0.1062,0.1078,0.1081,0.1083,0.1061,0.1061,0.1054,0.1053,0.1053,0.1052,0,0.0406,0.0436,0.0446,0.0495,0.0517,0.0545,0.0602,0.0667,0.075,0.0807,0.0928,0.0975,0.1043,0.1079,0.1085,0.1128,0.1119,0.1104,0.1068,0.1097,0.107,0.1069,0.1061,0.1059,0.1058,0.1057,0,0,0.0382,0.0439,0.0449,0.0482,0.054,0.0559,0.0635,0.0712,0.078,0.0892,0.0973,0.1071,0.1119,0.1134,0.1156,0.1149,0.1177,0.1147,0.1144,0.1144,0.1161,0.1078,0.1067,0.1188,0.1188,0.1188,0.1142,0,0.0385,0.0428,0.0457,0.051,0.0544,0.0603,0.0673,0.0755,0.085,0.0948,0.1011,0.1112,0.1131,0.1188,0.1186,0.1186,0.1175,0.1191,0.1115,0.1112,0.105,0.1063,0.1188,0.1141,0.114,0.114,0.1139,0,0.0379,0.0416,0.0475,0.055,0.0574,0.0623,0.0741,0.0809,0.0931,0.1012,0.1099,0.1158,0.1196,0.1199,0.1193,0.1215,0.1195,0.1176,0.1173,0.1048,0.1024,0.1098,0.1135,0.1135,0.1136,0.1136,0.1136,0,0.0356,0.0424,0.048,0.0505,0.06,0.0664,0.0734,0.0858,0.0932,0.106,0.112,0.1182,0.1226,0.1208,0.118,0.121,0.1135,0.1162,0.1054,0.1048,0.1091,0.1087,0.1129,0.1129,0.1129,0.1129,0.1129,0,0.0343,0.0385,0.0491,0.0519,0.0618,0.0692,0.0808,0.0887,0.0999,0.1055,0.1164,0.116,0.1236,0.1205,0.1173,0.109,0.1125,0.1048,0.1027,0.1139,0.114,0.1091,0.1087,0.1127,0.1128,0.1128,0.1128,0,0.0312,0.0373,0.0437,0.0557,0.0612,0.0695,0.0841,0.0902,0.1027,0.1084,0.1123,0.1173,0.1135,0.1151,0.1103,0.1076,0.1,0.095,0.1049,0.1036,0.0934,0.0936,0.0868,0.0864,0.0861,0.0859,0.0857,0,0.0299,0.0334,0.0461,0.0515,0.0584,0.0716,0.0792,0.0921,0.0948,0.1027,0.1004,0.1038,0.1048,0.0922,0.093,0.0883,0.0868,0.0858,0.0927,0.0918,0.0905,0.0912,0.0918,0.0852,0.0852,0.0851,0.085,0,0.0272,0.0325,0.038,0.0494,0.0584,0.0663,0.0759,0.077,0.0868,0.0966,0.0903,0.0906,0.0856,0.0831,0.0817,0.0759,0.0893,0.0829,0.0837,0.0902,0.0899,0.0891,0.09,0.084,0.0842,0.0842,0.0843,0,0.0254,0.0281,0.0357,0.0451,0.0546,0.0578,0.0646,0.0663,0.0718,0.0799,0.0727,0.0749,0.0791,0.0753,0.068,0.0686,0.071,0.0733,0.0747,0.0758,0.0746,0.0729,0.0587,0,0,0,0,0,0.0236,0.0247,0.0308,0.0389,0.0468,0.0521,0.0592,0.0639,0.0701,0.0647,0.0713,0.0651,0.0638,0.0608,0.0597,0.0622,0.0699,0.0606,0.073,0.0785,0.0796,0.0794,0,0,0,0,0,0,0.0218,0.0266,0.0275,0.0313,0.035,0.042,0.0457,0.0503,0.0474,0.0547,0.0523,0.0619,0.0584,0.0634,0.0579,0.0584,0.0655,0.0631,0.063,0.0778,0.0789,0.0798,0.0799,0,0,0,0,0]},{"header":{"parameterUnit":"m.s-1","parameterCategory":2,"la1":30.2991,"la2":30.254,"lo1":-89.0895,"lo2":-89.0444,"dy":0.0017,"dx":0.0017,"nx":28,"ny":28,"refTime":"2023-10-09T21:00:00:Z","depth":"4","parameterNumber":3,"parameterNumberName":"V-component_of_CURRENTS"},"data":[0,0,0,0,0,0,0,0,0,0,0,0,0,0,0,0,0,0,0,0,0,0,0,0,0,0,0,0,0,0,0,0,0,0,0,0,0,0,0,0,0,0,0,0,0,0,0,0,0,0,0,0,0,0,0,0,0,0,0.0183,0.0183,0,0.016,0.0159,0.0159,0.017,0.0171,0.0172,0.0173,0.0123,0.0121,0.0119,0,0,0,0,0,0,0,0,0,0,0,0,0,0.0198,0.0197,0.0183,0.0183,0.0183,0.016,0.0159,0.0159,0.017,0.0171,0.0172,0.0173,0.0124,0.0121,0.0119,0,0,0,0,0,0,0,0,0,0,0,0,0,0.0182,0.0197,0.0183,0.0188,0.0189,0.016,0.0159,0.0158,0.017,0.0171,0.0173,0.0174,0.0125,0.0121,0.0118,0.0072,0,0,0.0108,0.0107,0,0,0,0,0,0,0,0,0.0183,0.0181,0.0188,0.0188,0.0188,0.0172,0.0146,0.0129,0.017,0.0174,0.0173,0.0174,0.0138,0.0133,0.0123,0.007,0.0068,0.0108,0.0106,0.0105,0.0104,0,0,0,0,0,0,0,0.0184,0.0182,0.0171,0.0188,0.0188,0.0178,0.0177,0.0143,0.0146,0.0174,0.0175,0.0177,0.0138,0.0126,0.0121,0.0067,0.0108,0.0105,0.0103,0.0102,-0.0028,-0.0029,0,0,0,0,0,0,0.0193,0.0183,0.0172,0.0171,0.0192,0.0177,0.0176,0.0173,0.0147,0.0146,0.0176,0.0177,0.013,0.0125,0.012,0.0059,0.0105,0.0102,0.01,-0.0026,-0.0028,-0.003,0,0,0,0,0,0,0.0193,0.0192,0.0173,0.0179,0.0176,0.0176,0.0173,0.0172,0.0167,0.0149,0.0147,0.0172,0.0131,0.0124,0.009,0.0058,0.01,0.0097,-0.0024,-0.0027,-0.0029,-0.0059,0,0,0,0,0,0,0.0194,0.0192,0.0189,0.0179,0.0176,0.0158,0.0172,0.0171,0.0167,0.0169,0.0145,0.0142,0.0132,0.0095,0.0087,0.0054,0.0095,-0.0022,-0.0025,-0.0028,-0.0056,-0.0062,-0.0067,0,0,0,0,0,0.0194,0.0189,0.0189,0.0188,0.0174,0.0158,0.0155,0.0157,0.0166,0.0158,0.0142,0.0143,0.0071,0.0091,0.0082,0.0048,-0.0021,-0.0025,-0.0028,-0.0053,-0.0061,-0.0067,0,0,0,0,0,0,0.0192,0.019,0.019,0.0184,0.0173,0.0161,0.0156,0.0155,0.0135,0.0138,0.0124,0.0118,0.0069,0.0064,0.0086,0.0001,0.0024,0.0018,0.0007,0.0,-0.0005,0.0012,0.0092,0,0,0,0,0,0.019,0.0188,0.0179,0.0174,0.0169,0.016,0.0154,0.0153,0.0138,0.0132,0.0112,0.0086,0.0044,0.0031,-0.0005,-0.0047,-0.0047,-0.0076,-0.0081,-0.0086,-0.008,-0.0114,-0.0121,-0.0041,-0.0041,-0.0041,0,0,0.0188,0.0187,0.0186,0.0173,0.0165,0.0154,0.0159,0.0148,0.0134,0.0126,0.0095,0.0061,0.0026,-0.0024,-0.0046,-0.0028,-0.011,-0.009,-0.0094,-0.0085,-0.0118,-0.0126,-0.0133,-0.0043,-0.0043,-0.0043,0,0,0.0185,0.0181,0.0178,0.0168,0.0158,0.0149,0.0147,0.013,0.0117,0.0077,0.0062,0.0018,-0.0038,-0.0067,-0.009,-0.0147,-0.0145,-0.0166,-0.0173,-0.0207,-0.0214,-0.0219,-0.0228,-0.0234,-0.016,-0.016,-0.016,0,0.0184,0.0179,0.0172,0.0165,0.0159,0.0149,0.0139,0.0118,0.009,0.0069,0.0066,-0.0032,-0.006,-0.0122,-0.0143,-0.016,-0.0168,-0.0144,-0.0213,-0.0219,-0.0224,-0.0232,-0.0238,-0.0162,-0.0162,-0.0161,-0.0161,0,0.0177,0.0172,0.0168,0.0158,0.0145,0.0135,0.0112,0.009,0.0069,0.0041,-0.0029,-0.0076,-0.0124,-0.0156,-0.0169,-0.0228,-0.0218,-0.0222,-0.0191,-0.0233,-0.0239,-0.0245,-0.0164,-0.0164,-0.0163,-0.0163,0,0,0.0179,0.0168,0.0166,0.0164,0.0143,0.0133,0.0102,0.0067,0.0046,-0.001,-0.005,-0.0138,-0.0159,-0.0185,-0.0214,-0.0248,-0.0298,-0.0248,-0.0249,-0.0247,-0.0357,-0.0315,-0.0317,-0.0315,-0.0316,-0.0317,-0.0345,0,0.0177,0.0171,0.016,0.0148,0.0143,0.0121,0.0093,0.0057,0.0018,-0.0026,-0.0092,-0.0141,-0.017,-0.0193,-0.0239,-0.0285,-0.0316,-0.0289,-0.0325,-0.0325,-0.0275,-0.0324,-0.0321,-0.0349,-0.0351,-0.0352,-0.0352,0,0.017,0.017,0.0166,0.0149,0.0143,0.013,0.0093,0.0067,0.0001,-0.003,-0.0091,-0.0133,-0.02,-0.0212,-0.0307,-0.0288,-0.0322,-0.0356,-0.0358,-0.0309,-0.0294,-0.0301,-0.0363,-0.0362,-0.0362,-0.0361,-0.036,0,0.018,0.0169,0.0171,0.0166,0.0145,0.0132,0.0114,0.0061,0.0046,-0.0021,-0.0035,-0.0131,-0.0161,-0.0236,-0.0298,-0.0307,-0.0387,-0.0405,-0.0399,-0.0395,-0.0408,-0.0402,-0.0467,-0.0467,-0.0467,-0.0467,-0.0466,0,0.0179,0.0178,0.0178,0.0179,0.0174,0.0147,0.0131,0.0099,0.0061,0.0041,-0.0026,-0.0059,-0.0169,-0.0224,-0.0294,-0.0354,-0.038,-0.0404,-0.0407,-0.0421,-0.0415,-0.0412,-0.0405,-0.0468,-0.0467,-0.0467,-0.0467,0,0.0182,0.0185,0.0189,0.018,0.0181,0.0174,0.0167,0.0154,0.0122,0.01,0.0089,-0.0002,-0.0084,-0.0168,-0.0283,-0.0326,-0.0398,-0.0406,-0.0391,-0.0391,-0.0387,-0.0382,-0.0423,-0.0422,-0.0421,-0.042,-0.042,0,0.018,0.0187,0.0201,0.0213,0.0212,0.021,0.0211,0.0186,0.0178,0.0129,0.0117,0.0045,-0.0022,-0.0141,-0.0247,-0.0353,-0.0367,-0.0388,-0.0421,-0.0388,-0.0387,-0.0383,-0.0379,-0.0418,-0.0418,-0.0418,-0.0418,0,0.0177,0.0189,0.0194,0.0229,0.0242,0.025,0.0247,0.025,0.0218,0.0211,0.0149,0.0073,-0.0013,-0.0139,-0.0194,-0.0284,-0.0375,-0.0379,-0.0382,-0.0415,-0.0383,-0.0381,-0.0378,-0.0414,-0.0415,-0.0415,-0.0415,0,0.0174,0.0177,0.02,0.022,0.026,0.0267,0.0263,0.0252,0.0244,0.0203,0.0177,0.0076,0.0012,-0.0102,-0.0173,-0.0233,-0.0271,-0.0294,-0.0303,-0.0308,-0.0267,-0.0209,-0.0194,0,0,0,0,0,0.0167,0.0164,0.0188,0.0205,0.0257,0.0279,0.028,0.0271,0.0257,0.0232,0.0209,0.0129,0.0007,-0.007,-0.0124,-0.0177,-0.0289,-0.0243,-0.0321,-0.0396,-0.04,-0.0369,0,0,0,0,0,0,0.0155,0.0175,0.0172,0.0203,0.0232,0.0269,0.0279,0.0263,0.0241,0.0224,0.0154,0.0136,0.0008,0.0053,-0.0116,-0.014,-0.0193,-0.0299,-0.03,-0.0394,-0.0398,-0.0401,-0.037,0,0,0,0,0]}]]